GW4768 Weather Reports


Display with metric or nautical units.
time (UTC)temp
F
wind
direction
speed
MPH
gust
MPH
rain 1hr
in
rain 24hr
in
rain mn
in
humidity
%
barometer
mb
20260902103011 60 99 15.0 20.0 0.00 0.32 0.00 65 1011.7
20260902101510 61 192 8.0 18.0 0.00 0.32 0.00 65 1012.5
20260902100014 57 215 1.0 7.0 0.00 0.32 0.00 76 1013.0
20260902094513 56 166 1.0 7.0 0.00 0.32 0.00 81 1013.3
20260902093020 55 230 1.0 6.0 0.00 0.32 0.00 85 1013.3
20260902091511 55 338 0.0 6.0 0.00 0.32 0.00 85 1013.4
20260902090008 55 149 3.0 7.0 0.00 0.32 0.00 85 1013.3
20260902084520 55 229 2.0 4.0 0.00 0.32 0.00 85 1013.3
20260902083017 55 130 0.0 2.0 0.00 0.32 0.00 85 1013.4
20260902081515 55 114 0.0 3.0 0.00 0.32 0.00 86 1013.4
20260902080016 55 92 0.0 2.0 0.00 0.32 0.00 87 1013.5
20260902074516 55 109 3.0 4.0 0.00 0.32 0.00 87 1013.5
20260902073019 56 233 1.0 7.0 0.00 0.32 0.00 87 1013.6
20260902071515 56 76 2.0 3.0 0.00 0.32 0.00 85 1013.3
20260902070021 56 231 3.0 9.0 0.00 0.32 0.00 85 1012.9
20260902064522 56 242 6.0 8.0 0.00 0.32 0.00 86 1013.3
20260902063018 56 238 5.0 8.0 0.00 0.32 0.00 85 1013.8
20260902061540 57 240 1.0 4.0 0.00 0.32 0.00 83 1014.1
20260902060023 58 163 2.0 14.0 0.00 0.32 0.00 79 1014.6
20260902054521 57 123 8.0 14.0 0.00 0.32 0.32 83 1015.0
20260902053028 56 140 1.0 8.0 0.00 0.32 0.32 89 1015.4
20260902051517 56 238 1.0 7.0 0.00 0.32 0.32 90 1015.2
20260902050028 55 141 0.0 4.0 0.00 0.32 0.32 91 1015.2
20260902044527 55 123 1.0 2.0 0.00 0.32 0.32 91 1015.0
20260902043025 55 246 1.0 11.0 0.01 0.32 0.32 91 1014.7
20260902041528 56 263 6.0 11.0 0.03 0.32 0.32 90 1014.5
20260902040027 56 69 5.0 9.0 0.06 0.32 0.32 89 1015.1
20260902034526 57 148 2.0 9.0 0.09 0.32 0.32 87 1015.6
20260902033027 56 184 0.0 2.0 0.10 0.31 0.31 88 1015.8
20260902031521 57 252 3.0 7.0 0.12 0.29 0.29 87 1015.5
20260902030031 57 233 7.0 11.0 0.10 0.26 0.26 86 1015.7
20260902024532 57 218 2.0 9.0 0.08 0.23 0.23 85 1015.9
20260902023029 58 123 9.0 14.0 0.07 0.21 0.21 81 1015.8
20260902021531 58 85 4.0 12.0 0.06 0.17 0.17 84 1016.4
20260902020029 58 161 3.0 7.0 0.06 0.16 0.16 82 1016.0
20260902014528 59 111 8.0 13.0 0.05 0.15 0.15 81 1015.7
20260902013004 60 85 9.0 11.0 0.04 0.14 0.14 72 1015.8
20260902011507 63 152 1.0 9.0 0.01 0.11 0.11 65 1016.3
20260902010022 64 98 7.0 10.0 0.03 0.10 0.10 63 1015.9
20260902004519 64 319 3.0 9.0 0.03 0.10 0.10 61 1015.3
20260902003017 63 248 8.0 17.0 0.03 0.10 0.10 67 1015.1
20260902001513 64 130 5.0 19.0 0.03 0.10 0.10 67 1014.5
20260902000012 70 212 9.0 17.0 0.01 0.07 0.07 50 1012.6
20260901234509 70 96 4.0 11.0 0.07 0.07 0.07 47 1011.2
20260901233006 71 352 7.0 15.0 0.07 0.07 0.07 46 1009.9
20260901231507 71 121 9.0 14.0 0.07 0.07 0.07 49 1009.9
20260901230026 73 182 0.0 17.0 0.06 0.06 0.06 46 1009.8
20260901224526 78 130 2.0 3.0 0.00 0.00 0.00 37 1009.5
20260901223023 78 336 1.0 3.0 0.00 0.00 0.00 38 1009.3
20260901221518 78 44 3.0 5.0 0.00 0.00 0.00 38 1009.2
20260901220017 78 352 3.0 4.0 0.00 0.00 0.00 41 1009.3
20260901214515 79 42 4.0 6.0 0.00 0.00 0.00 37 1009.5
20260901213013 79 346 3.0 7.0 0.00 0.00 0.00 40 1009.8
20260901211507 78 41 5.0 6.0 0.00 0.00 0.00 36 1010.2
20260901210031 77 325 3.0 5.0 0.00 0.00 0.00 38 1010.5
20260901204527 76 351 3.0 8.0 0.00 0.00 0.00 38 1010.8
20260901203028 76 40 3.0 6.0 0.00 0.00 0.00 35 1011.0
20260901201523 76 20 4.0 7.0 0.00 0.00 0.00 44 1011.4
20260901200018 75 34 3.0 6.0 0.00 0.00 0.00 38 1011.8
20260901194518 74 307 3.0 5.0 0.00 0.00 0.00 41 1012.1
20260901193016 72 328 3.0 5.0 0.00 0.00 0.00 41 1012.3
20260901191522 71 23 4.0 5.0 0.00 0.00 0.00 42 1012.5
20260901190034 70 32 3.0 5.0 0.00 0.00 0.00 42 1012.8
20260901184537 70 9 2.0 5.0 0.00 0.00 0.00 44 1013.0
20260901183040 69 360 3.0 6.0 0.00 0.00 0.00 44 1013.2
20260901181529 68 336 2.0 5.0 0.00 0.00 0.00 45 1013.4
20260901180026 68 46 3.0 5.0 0.00 0.00 0.00 42 1013.5
20260901174523 66 350 4.0 5.0 0.00 0.00 0.00 46 1013.7
20260901173024 65 350 4.0 5.0 0.00 0.00 0.00 46 1014.0
20260901171522 64 328 2.0 5.0 0.00 0.00 0.00 50 1014.2
20260901170040 63 14 3.0 4.0 0.00 0.00 0.00 49 1014.2
20260901164540 62 360 2.0 4.0 0.00 0.00 0.00 50 1014.5
20260901163033 61 5 2.0 3.0 0.00 0.00 0.00 49 1014.6
20260901161548 61 22 1.0 3.0 0.00 0.00 0.00 53 1014.7
20260901160027 60 331 0.0 2.0 0.00 0.00 0.00 54 1014.8
20260901154528 59 13 1.0 2.0 0.00 0.00 0.00 54 1014.9
20260901153025 59 42 1.0 2.0 0.00 0.00 0.00 53 1015.1
20260901151520 58 56 0.0 2.0 0.00 0.00 0.00 53 1015.1
20260901150039 57 318 0.0 2.0 0.00 0.00 0.00 55 1015.1
20260901144540 56 238 1.0 4.0 0.00 0.00 0.00 56 1015.1
20260901143039 55 236 2.0 3.0 0.00 0.00 0.00 57 1015.0
20260901141538 53 215 0.0 2.0 0.00 0.00 0.00 58 1015.0
20260901140031 51 210 0.0 2.0 0.00 0.00 0.00 62 1014.9
20260901134528 50 232 0.0 3.0 0.00 0.00 0.00 61 1015.0
20260901133027 49 215 0.0 3.0 0.00 0.00 0.00 63 1015.0
20260901131527 49 159 1.0 2.0 0.00 0.00 0.00 61 1014.9
20260901130027 49 191 0.0 4.0 0.00 0.00 0.00 61 1014.9
20260901124534 50 227 3.0 4.0 0.00 0.00 0.00 60 1014.8
20260901123014 50 223 3.0 4.0 0.00 0.00 0.00 61 1014.8
20260901121511 50 225 0.0 2.0 0.00 0.00 0.00 60 1014.8
20260901120011 51 163 0.0 2.0 0.00 0.00 0.00 59 1014.8
20260901114534 51 229 2.0 3.0 0.00 0.00 0.00 58 1014.8
20260901113031 51 224 2.0 3.0 0.00 0.00 0.00 60 1014.8
20260901111528 52 241 2.0 3.0 0.00 0.00 0.00 58 1014.8
20260901110027 54 194 2.0 6.0 0.00 0.00 0.00 52 1014.7
20260901104523 55 160 2.0 5.0 0.00 0.00 0.00 52 1014.7